Location: Monts Yimbili
(10.6833°N, 12.5167°W)
Time: 03:41:49
(UTC+00:00)

Daily predictions for brighter satellites

Satellite Brightness Start Highest point End
(mag) Time Altitude Azimuth Time Altitude Azimuth Time Altitude Azimuth
ARIANE 5 R/B 4.4 04:11:22 47° SE 04:11:22 47° SE 04:22:02 10° E
CZ-2C R/B 3.8 04:27:49 10° NNE 04:32:31 37° E 04:37:06 10° SSE
DELTA 2 R/B (1) 3.8 04:38:43 64° ESE 04:38:43 64° ESE 04:43:44 10° NE
GPS 2-04 Rocket1 4.3 04:49:16 31° SSE 04:49:26 31° SE 04:53:10 10° E
Milstar 3 3.5 04:49:35 38° NNW 04:49:42 38° NNW 04:55:55 10° NE
Cosmos 2184 Rocket 3.8 04:43:59 10° S 04:50:08 80° W 04:56:21 10° N
Centaur D-1AR AC-39 3.3 04:54:57 21° NNE 04:54:57 21° NNE 04:57:17 10° NE
CZ-4B R/B 3.1 04:59:12 10° NNE 05:02:53 59° E 05:06:27 10° S
GPS 2-14 Rocket1 4.4 05:05:34 22° NNE 05:05:34 22° NNE 05:08:11 10° ENE
Cosmos 1758 4.0 05:07:35 10° N 05:11:31 53° E 05:15:29 10° SSE
PSLV R/B 3.8 05:11:23 10° SSE 05:15:26 87° ENE 05:18:11 20° N
Cosmos 921 Rocket 3.4 05:12:44 10° N 05:16:52 59° E 05:20:57 10° SSE
Meteor 1-31 Rocket 2.5 05:13:18 10° N 05:17:04 73° WNW 05:20:51 10° SSW
Cosmos 2074 Rocket 4.4 05:15:18 10° SSW 05:20:58 36° W 05:26:36 10° NNW
Cosmos 1470 2.7 05:19:29 10° N 05:23:21 80° E 05:27:12 10° S
Cosmos 1295 Rocket 4.5 05:20:47 10° S 05:27:02 88° E 05:33:14 10° N
Aurora 2 Rocket 3.2 05:25:02 23° WSW 05:29:27 84° SSE 05:34:22 10° ENE
SL-16 R/B 2.7 05:27:27 25° WSW 05:29:44 35° WNW 05:34:50 10° N
Cosmos 1844 Rocket 4.0 05:31:18 20° WSW 05:31:18 20° WSW 05:34:20 10° SSW
Okean O Rocket 3.7 05:28:00 10° NE 05:31:47 29° E 05:35:31 10° SSE
Cosmos 1484 Rocket 3.2 05:29:31 10° NNE 05:33:20 63° ESE 05:37:14 10° S
OAO 1 4.5 05:32:01 26° WNW 05:35:10 80° SW 05:40:41 10° SE
Mugunghwa Rocket 4.2 05:32:24 18° WSW 05:37:42 90° WNW 05:45:28 10° ENE
Cosmos 1892 Rocket 3.6 05:35:28 10° SSW 05:39:49 54° W 05:44:08 10° N
SWIFT 4.5 05:41:43 12° SW 05:43:14 14° SSW 05:45:22 10° S
ALOS 3.5 05:40:08 10° NNE 05:44:34 44° E 05:49:00 10° S
CENTAUR R/B 4.5 05:38:01 10° N 05:46:02 42° ENE 05:53:58 10° SE
Cosmos 1741 Rocket 4.0 05:40:54 10° SSW 05:46:08 63° WNW 05:51:22 10° N
MOS 1-B 4.3 05:41:13 10° N 05:47:00 77° WNW 05:52:47 10° SSW
GP-B 3.1 05:48:43 10° S 05:53:09 90° NE 05:57:34 10° N
SJ-12 3.9 05:49:11 10° N 05:53:18 89° WNW 05:57:26 10° SSW
Cosmos 489 Rocket 4.4 05:50:12 10° NNW 05:56:27 74° WSW 06:02:45 10° S
Cosmos 44 4.4 05:52:56 10° N 05:57:00 41° ENE 06:01:09 10° SE
Cosmos 292 Rocket 4.0 05:53:30 10° NNW 05:58:09 50° WSW 06:02:49 10° S
Cosmos 2278 Rocket 2.1 05:52:40 10° NNW 05:58:18 76° WSW 06:03:56 10° S
SeaSat 1 3.2 05:56:36 10° NNE 06:01:25 57° ESE 06:06:14 10° S
ARIANE DEB (SPELDA) 3.9 06:00:38 10° SW 06:02:12 14° S 06:03:34 10° SE
Cosmos 1437 Rocket 3.5 05:59:41 10° SW 06:02:59 28° W 06:06:16 10° NNW
KORONAS-FOTON 3.7 05:59:49 10° SSW 06:03:32 59° W 06:07:14 10° N
Cosmos 1943 3.7 05:57:58 10° S 06:03:37 68° ESE 06:09:15 10° NNE
USA 238 DEB 4.1 05:58:25 10° NW 06:05:34 53° WSW 06:12:47 10° S
USA 238 4.1 05:58:31 10° NW 06:05:40 53° WSW 06:12:53 10° S
Cosmos 1606 Rocket 3.7 06:05:49 10° NNW 06:10:00 52° W 06:14:15 10° S
CZ-2C R/B 4.1 06:07:59 10° NW 06:10:20 13° WNW 06:12:40 10° WSW
GPS 2-15 Rocket1 3.6 06:06:13 11° W 06:10:33 47° NNW 06:15:07 10° ENE
Meteor 2-5 Rocket 3.9 06:05:04 10° SSW 06:10:33 50° W 06:16:08 10° N
Hubble Space Telescope 3.5 06:11:20 10° S 06:13:46 15° SSE 06:16:11 10° ESE
GPS 2-05 Rocket1 2.8 06:11:50 10° NW 06:14:30 54° NE 06:17:12 10° ESE
Cosmos 1626 Rocket 3.5 06:11:14 10° S 06:15:31 69° W 06:19:48 10° N
Milstar 3 Cent rocket 4.0 06:14:27 10° NW 06:17:02 13° NNW 06:19:22 10° NNE
ISS -3.8 06:15:00 10° SW 06:18:21 79° NW 06:21:42 10° NNE
NOAA 6 4.0 06:16:12 10° N 06:21:18 69° WNW 06:26:24 10° SSW
COSMO-SKYMED 1 3.0 06:17:04 10° SSE 06:21:21 67° ENE 06:25:39 10° N
Cosmos 2218 Rocket 4.1 06:16:30 10° SSW 06:22:51 68° W 06:29:11 10° N
Ariane H10+ 4.3 06:12:10 10° W 06:25:45 31° SSW 06:30:51 10° SE
